Location: Unspecified
(20.0000°S, 0.0000°E)
Time: 09:48:12
(UTC+00:00)

NUDT-PHONESAT - Pass Details

Date: 22 July 2019
Orbit: 489 x 505 km, 97.4° (Epoch: 25 August)

Event Time Altitude Azimuth Distance (km) Brightness Sun altitude
Rises 18:54:55 0° 189° (S) 2,613 ? -17.6°
Reaches altitude 10° 18:57:22 10° 205° (SSW) 1,718 ? -18.2°
Maximum altitude 19:00:11 21° 255° (WSW) 1,166 ? -18.8°
Drops below altitude 10° 19:03:00 10° 305° (NW) 1,694 ? -19.5°
Sets 19:05:24 0° 321° (NW) 2,565 ? -20.0°
